GW6516 Weather Reports


Display with metric or nautical units.
time (UTC)temp
F
wind
direction
speed
MPH
gust
MPH
rain 1hr
in
rain 24hr
in
rain mn
in
humidity
%
barometer
mb
20260508200049 60 0 0.0 0.0 0.00 0.00 0.00 67 1014.7
20260508195528 60 0 0.0 2.0 0.00 0.00 0.00 68 1014.9
20260508195032 60 0 0.0 2.0 0.00 0.00 0.00 68 1015.0
20260508194538 60 5 0.0 2.0 0.00 0.00 0.00 68 1015.1
20260508194027 60 0 0.0 0.0 0.00 0.00 0.00 69 1015.0
20260508193527 60 0 0.0 0.0 0.00 0.00 0.00 67 1015.0
20260508193037 60 0 0.0 0.0 0.00 0.00 0.00 68 1015.1
20260508192527 60 0 0.0 0.0 0.00 0.00 0.00 66 1015.2
20260508192029 60 0 0.0 0.0 0.00 0.00 0.00 67 1015.2
20260508191550 61 0 0.0 0.0 0.00 0.00 0.00 67 1015.2
20260508191028 61 0 0.0 0.0 0.00 0.00 0.00 66 1015.3
20260508190528 61 0 0.0 0.0 0.00 0.00 0.00 66 1015.3
20260508190042 61 0 0.0 0.0 0.00 0.00 0.00 66 1015.3
20260508185528 61 0 0.0 0.0 0.00 0.00 0.00 65 1015.2
20260508185028 62 0 0.0 0.0 0.00 0.00 0.00 65 1015.1
20260508184549 62 0 0.0 0.0 0.00 0.00 0.00 64 1015.2
20260508184027 62 0 0.0 0.0 0.00 0.00 0.00 63 1015.3
20260508183532 63 0 0.0 0.0 0.00 0.00 0.00 63 1015.3
20260508183039 63 0 0.0 0.0 0.00 0.00 0.00 63 1015.3
20260508182529 63 0 0.0 0.0 0.00 0.00 0.00 61 1015.3
20260508182030 64 0 0.0 0.0 0.00 0.00 0.00 62 1015.4
20260508181538 64 0 0.0 0.0 0.00 0.00 0.00 61 1015.4
20260508181029 64 0 0.0 0.0 0.00 0.00 0.00 62 1015.4
20260508180529 64 0 0.0 0.0 0.00 0.00 0.00 62 1015.5
20260508180038 64 0 0.0 0.0 0.00 0.00 0.00 61 1015.5
20260508175528 64 0 0.0 0.0 0.00 0.00 0.00 62 1015.6
20260508175029 64 0 0.0 2.0 0.00 0.00 0.00 62 1015.5
20260508174547 65 0 0.0 2.0 0.00 0.00 0.00 62 1015.6
20260508174028 65 0 0.0 0.0 0.00 0.00 0.00 61 1015.6
20260508173528 65 0 0.0 2.0 0.00 0.00 0.00 61 1015.6
20260508173046 65 0 0.0 2.0 0.00 0.00 0.00 60 1015.6
20260508172531 65 0 0.0 0.0 0.00 0.00 0.00 63 1015.6
20260508172029 66 0 0.0 0.0 0.00 0.00 0.00 63 1015.6
20260508171538 66 0 0.0 0.0 0.00 0.00 0.00 60 1015.7
20260508171028 66 0 0.0 0.0 0.00 0.00 0.00 61 1015.7
20260508170528 67 0 0.0 0.0 0.00 0.00 0.00 60 1015.7
20260508170039 66 0 0.0 0.0 0.00 0.00 0.00 60 1015.7
20260508165528 67 0 0.0 0.0 0.00 0.00 0.00 60 1015.7
20260508165028 67 0 0.0 0.0 0.00 0.00 0.00 58 1015.7
20260508164545 67 0 0.0 0.0 0.00 0.00 0.00 58 1015.8
20260508164029 68 0 0.0 0.0 0.00 0.00 0.00 59 1015.8
20260508163528 68 0 0.0 0.0 0.00 0.00 0.00 58 1015.8
20260508163038 68 0 0.0 0.0 0.00 0.00 0.00 56 1015.9
20260508162528 68 0 0.0 0.0 0.00 0.00 0.00 56 1015.9
20260508162028 69 0 0.0 0.0 0.00 0.00 0.00 56 1015.9
20260508161546 69 0 0.0 0.0 0.00 0.00 0.00 54 1015.9
20260508161029 69 0 0.0 0.0 0.00 0.00 0.00 53 1015.9
20260508160528 69 0 0.0 0.0 0.00 0.00 0.00 54 1015.9
20260508160043 70 0 0.0 0.0 0.00 0.00 0.00 54 1015.9
20260508155529 70 0 0.0 0.0 0.00 0.00 0.00 51 1015.9
20260508155029 70 0 0.0 0.0 0.00 0.00 0.00 47 1016.0
20260508154544 69 0 0.0 0.0 0.00 0.00 0.00 50 1016.0
20260508154028 69 0 0.0 0.0 0.00 0.00 0.00 52 1016.1
20260508153529 69 0 0.0 0.0 0.00 0.00 0.00 52 1016.0
20260508153038 69 0 0.0 0.0 0.00 0.00 0.00 52 1016.0
20260508152530 70 0 0.0 0.0 0.00 0.00 0.00 50 1016.1
20260508152028 70 0 0.0 0.0 0.00 0.00 0.00 48 1016.1
20260508151535 71 0 0.0 0.0 0.00 0.00 0.00 47 1016.1
20260508151031 71 0 0.0 0.0 0.00 0.00 0.00 45 1016.2
20260508150530 72 0 0.0 0.0 0.00 0.00 0.00 44 1016.2
20260508150043 73 0 0.0 0.0 0.00 0.00 0.00 44 1016.1
20260508145528 73 0 0.0 0.0 0.00 0.00 0.00 45 1016.1
20260508145028 74 0 0.0 0.0 0.00 0.00 0.00 42 1016.2
20260508144547 74 0 0.0 1.0 0.00 0.00 0.00 42 1016.1
20260508144029 74 0 0.0 2.0 0.00 0.00 0.00 42 1016.2
20260508143529 75 0 0.0 2.0 0.00 0.00 0.00 42 1016.2
20260508143049 75 194 0.0 2.0 0.00 0.00 0.00 40 1016.2
20260508142528 75 0 0.0 3.0 0.00 0.00 0.00 44 1016.2
20260508142032 75 0 0.0 3.0 0.00 0.00 0.00 44 1016.2
20260508141537 75 0 0.0 0.0 0.00 0.00 0.00 49 1016.2
20260508141028 75 0 0.0 0.0 0.00 0.00 0.00 48 1016.2
20260508140528 75 0 0.0 0.0 0.00 0.00 0.00 50 1016.2
20260508140040 75 0 0.0 2.0 0.00 0.00 0.00 54 1016.1
20260508135525 76 0 0.0 2.0 0.00 0.00 0.00 55 1016.0
20260508135029 76 0 0.0 2.0 0.00 0.00 0.00 55 1016.0
20260508134547 77 0 0.0 0.0 0.00 0.00 0.00 55 1016.0
20260508134029 78 0 0.0 0.0 0.00 0.00 0.00 53 1016.1
20260508133528 78 0 0.0 0.0 0.00 0.00 0.00 51 1016.1
20260508133037 79 0 0.0 0.0 0.00 0.00 0.00 51 1016.1
20260508132530 79 0 0.0 0.0 0.00 0.00 0.00 50 1016.2
20260508132030 80 0 0.0 0.0 0.00 0.00 0.00 48 1016.2
20260508131539 80 0 0.0 0.0 0.00 0.00 0.00 48 1016.2
20260508131029 81 0 0.0 0.0 0.00 0.00 0.00 49 1016.2
20260508130529 81 0 0.0 0.0 0.00 0.00 0.00 50 1016.2
20260508130057 81 0 0.0 0.0 0.00 0.00 0.00 50 1016.2
20260508125530 81 0 0.0 0.0 0.00 0.00 0.00 52 1016.2
20260508125029 81 0 0.0 0.0 0.00 0.00 0.00 53 1016.2
20260508124542 81 0 0.0 0.0 0.00 0.00 0.00 53 1016.2
20260508124028 81 0 0.0 2.0 0.00 0.00 0.00 52 1016.3
20260508123529 82 0 0.0 2.0 0.00 0.00 0.00 51 1016.3
20260508123053 82 0 0.0 2.0 0.00 0.00 0.00 50 1016.3
20260508122529 82 0 0.0 2.0 0.00 0.00 0.00 50 1016.2
20260508122028 82 0 0.0 2.0 0.00 0.00 0.00 51 1016.2
20260508121545 83 0 0.0 2.0 0.00 0.00 0.00 49 1016.2
20260508121029 83 0 0.0 2.0 0.00 0.00 0.00 47 1016.2
20260508120528 83 214 0.0 0.0 0.00 0.00 0.00 35 1016.1
20260508120040 84 0 0.0 0.0 0.00 0.00 0.00 33 1016.2
20260508115529 84 0 0.0 0.0 0.00 0.00 0.00 32 1016.1
20260508115028 84 0 0.0 0.0 0.00 0.00 0.00 33 1016.1
20260508114547 85 0 0.0 0.0 0.00 0.00 0.00 33 1016.0
20260508114028 85 0 0.0 0.0 0.00 0.00 0.00 26 1016.0
20260508113530 86 0 0.0 0.0 0.00 0.00 0.00 28 1015.9
20260508113044 86 0 0.0 1.0 0.00 0.00 0.00 29 1015.9
20260508112531 87 0 0.0 2.0 0.00 0.00 0.00 27 1015.8
20260508112029 88 0 0.0 2.0 0.00 0.00 0.00 25 1015.8
20260508111548 88 0 0.0 2.0 0.00 0.00 0.00 30 1015.7
20260508111028 89 0 0.0 4.0 0.00 0.00 0.00 26 1015.7
20260508110528 88 59 2.0 4.0 0.00 0.00 0.00 26 1015.7
20260508110041 89 341 1.0 2.0 0.00 0.00 0.00 26 1015.7
20260508105529 88 0 0.0 0.0 0.00 0.00 0.00 25 1015.7
20260508105032 87 0 0.0 2.0 0.00 0.00 0.00 27 1015.7
20260508104544 87 0 0.0 2.0 0.00 0.00 0.00 26 1015.8
20260508104029 88 0 0.0 3.0 0.00 0.00 0.00 26 1015.9
20260508103530 88 0 0.0 3.0 0.00 0.00 0.00 30 1015.8
20260508103045 89 352 0.0 3.0 0.00 0.00 0.00 30 1015.7
20260508102528 89 0 1.0 3.0 0.00 0.00 0.00 30 1015.7
20260508102031 89 0 0.0 5.0 0.00 0.00 0.00 30 1015.7
20260508101547 89 79 0.0 5.0 0.00 0.00 0.00 28 1015.7
20260508101029 89 0 0.0 3.0 0.00 0.00 0.00 27 1015.7
20260508100528 89 0 1.0 3.0 0.00 0.00 0.00 24 1015.7
20260508100042 89 349 0.0 2.0 0.00 0.00 0.00 28 1015.8
20260508095528 89 352 0.0 2.0 0.00 0.00 0.00 26 1015.8
20260508095031 89 0 0.0 3.0 0.00 0.00 0.00 25 1015.7
20260508094546 89 327 0.0 3.0 0.00 0.00 0.00 28 1015.8
20260508094028 89 71 0.0 2.0 0.00 0.00 0.00 25 1015.8
20260508093529 89 0 0.0 4.0 0.00 0.00 0.00 29 1015.8
20260508093046 89 193 0.0 4.0 0.00 0.00 0.00 24 1015.7
20260508092528 89 360 0.0 4.0 0.00 0.00 0.00 31 1015.7
20260508092029 89 51 0.0 4.0 0.00 0.00 0.00 31 1015.8
20260508091550 89 340 1.0 4.0 0.00 0.00 0.00 28 1015.8
20260508091029 89 339 1.0 4.0 0.00 0.00 0.00 25 1015.8
20260508090529 89 337 1.0 4.0 0.00 0.00 0.00 28 1015.8
20260508090053 89 297 0.0 4.0 0.00 0.00 0.00 25 1015.9
20260508085529 89 0 0.0 4.0 0.00 0.00 0.00 24 1015.9
20260508085030 88 0 1.0 4.0 0.00 0.00 0.00 27 1015.9
20260508084536 88 26 1.0 4.0 0.00 0.00 0.00 29 1015.9
20260508084029 88 0 1.0 3.0 0.00 0.00 0.00 26 1015.9
20260508083529 88 0 0.0 4.0 0.00 0.00 0.00 26 1016.0
20260508083044 88 0 1.0 4.0 0.00 0.00 0.00 25 1016.0
20260508082528 88 330 0.0 3.0 0.00 0.00 0.00 26 1016.0
20260508082028 88 0 0.0 3.0 0.00 0.00 0.00 24 1016.0
20260508081544 88 209 0.0 3.0 0.00 0.00 0.00 27 1016.0
20260508081031 88 0 1.0 3.0 0.00 0.00 0.00 25 1016.1
20260508080530 88 23 0.0 4.0 0.00 0.00 0.00 29 1016.0
20260508080042 87 123 1.0 4.0 0.00 0.00 0.00 29 1016.0
20260508075529 87 57 1.0 4.0 0.00 0.00 0.00 28 1016.0
20260508075028 87 5 1.0 4.0 0.00 0.00 0.00 31 1016.0
20260508074537 87 71 1.0 4.0 0.00 0.00 0.00 32 1016.0
20260508074029 87 0 0.0 2.0 0.00 0.00 0.00 31 1016.0
20260508073533 87 348 0.0 3.0 0.00 0.00 0.00 30 1016.0
20260508073044 86 49 1.0 3.0 0.00 0.00 0.00 32 1016.1
20260508072526 86 44 1.0 3.0 0.00 0.00 0.00 32 1016.1
20260508072028 85 350 1.0 2.0 0.00 0.00 0.00 28 1016.1
20260508071554 85 325 0.0 2.0 0.00 0.00 0.00 31 1016.1
20260508071029 85 0 0.0 2.0 0.00 0.00 0.00 33 1016.1
20260508070531 85 55 0.0 4.0 0.00 0.00 0.00 28 1016.1
20260508070052 86 0 0.0 4.0 0.00 0.00 0.00 28 1016.2
20260508065532 86 94 1.0 4.0 0.00 0.00 0.00 29 1016.1
20260508065028 85 0 0.0 5.0 0.00 0.00 0.00 29 1016.2
20260508064539 85 59 1.0 6.0 0.00 0.00 0.00 30 1016.2
20260508064028 86 360 1.0 6.0 0.00 0.00 0.00 30 1016.2
20260508063529 86 36 1.0 4.0 0.00 0.00 0.00 33 1016.2
20260508063041 85 326 1.0 7.0 0.00 0.00 0.00 31 1016.2
20260508062529 85 46 2.0 7.0 0.00 0.00 0.00 29 1016.2
20260508062028 85 132 1.0 5.0 0.00 0.00 0.00 29 1016.2
20260508061545 85 88 1.0 4.0 0.00 0.00 0.00 32 1016.2
20260508061028 85 70 2.0 8.0 0.00 0.00 0.00 35 1016.3
20260508060528 85 245 1.0 8.0 0.00 0.00 0.00 34 1016.3
20260508060045 84 69 3.0 8.0 0.00 0.00 0.00 31 1016.2
20260508055529 84 0 0.0 4.0 0.00 0.00 0.00 30 1016.2
20260508055028 84 352 0.0 4.0 0.00 0.00 0.00 34 1016.3
20260508054548 84 31 1.0 4.0 0.00 0.00 0.00 34 1016.2
20260508054028 83 100 1.0 5.0 0.00 0.00 0.00 33 1016.4
20260508053532 83 352 2.0 5.0 0.00 0.00 0.00 32 1016.3
20260508053044 84 30 2.0 5.0 0.00 0.00 0.00 30 1016.3
20260508052529 83 53 1.0 5.0 0.00 0.00 0.00 30 1016.2
20260508052028 83 351 1.0 3.0 0.00 0.00 0.00 30 1016.3
20260508051541 83 0 0.0 2.0 0.00 0.00 0.00 32 1016.3
20260508051029 83 0 0.0 2.0 0.00 0.00 0.00 30 1016.4
20260508050529 83 342 1.0 5.0 0.00 0.00 0.00 33 1016.4
20260508050049 83 0 1.0 5.0 0.00 0.00 0.00 36 1016.4
20260508045528 83 12 1.0 3.0 0.00 0.00 0.00 34 1016.4
20260508045028 83 0 0.0 3.0 0.00 0.00 0.00 32 1016.4
20260508044546 83 0 1.0 3.0 0.00 0.00 0.00 29 1016.4
20260508044028 83 18 1.0 5.0 0.00 0.00 0.00 32 1016.4
20260508043529 82 0 1.0 5.0 0.00 0.00 0.00 32 1016.4
20260508043044 82 46 1.0 3.0 0.00 0.00 0.00 33 1016.3
20260508042529 82 92 0.0 2.0 0.00 0.00 0.00 35 1016.4
20260508042028 82 0 0.0 2.0 0.00 0.00 0.00 34 1016.4
20260508041545 82 0 0.0 2.0 0.00 0.00 0.00 34 1016.5
20260508041029 81 0 0.0 4.0 0.00 0.00 0.00 36 1016.5
20260508040529 81 0 0.0 4.0 0.00 0.00 0.00 41 1016.5
20260508040043 81 9 0.0 2.0 0.00 0.00 0.00 39 1016.5
20260508035528 81 0 0.0 1.0 0.00 0.00 0.00 38 1016.5
20260508035028 81 0 0.0 1.0 0.00 0.00 0.00 38 1016.5
20260508034544 81 0 0.0 0.0 0.00 0.00 0.00 35 1016.6
20260508034029 81 0 0.0 1.0 0.00 0.00 0.00 39 1016.5
20260508033528 80 0 0.0 1.0 0.00 0.00 0.00 39 1016.6
20260508033101 80 0 0.0 0.0 0.00 0.00 0.00 44 1016.6
20260508032529 79 0 0.0 0.0 0.00 0.00 0.00 43 1016.5
20260508032028 79 0 0.0 0.0 0.00 0.00 0.00 44 1016.5
20260508031540 78 0 0.0 0.0 0.00 0.00 0.00 44 1016.5
20260508031029 78 0 0.0 0.0 0.00 0.00 0.00 51 1016.5
20260508030529 78 0 0.0 0.0 0.00 0.00 0.00 53 1016.5
20260508030047 77 0 0.0 0.0 0.00 0.00 0.00 50 1016.5
20260508025532 77 0 0.0 0.0 0.00 0.00 0.00 56 1016.5
20260508025028 77 0 0.0 0.0 0.00 0.00 0.00 53 1016.4
20260508024545 76 0 0.0 0.0 0.00 0.00 0.00 54 1016.5
20260508024030 76 0 0.0 0.0 0.00 0.00 0.00 54 1016.5
20260508023530 75 0 0.0 0.0 0.00 0.00 0.00 60 1016.4
20260508023043 75 0 0.0 0.0 0.00 0.00 0.00 58 1016.4
20260508022529 76 0 0.0 0.0 0.00 0.00 0.00 59 1016.4
20260508022029 75 0 0.0 0.0 0.00 0.00 0.00 57 1016.5
20260508021542 75 0 0.0 0.0 0.00 0.00 0.00 58 1016.5
20260508021029 75 0 0.0 0.0 0.00 0.00 0.00 60 1016.5
20260508020529 74 0 0.0 0.0 0.00 0.00 0.00 60 1016.4
20260508020100 73 0 0.0 0.0 0.00 0.00 0.00 62 1016.5
20260508015529 72 0 0.0 0.0 0.00 0.00 0.00 65 1016.5
20260508015031 71 0 0.0 0.0 0.00 0.00 0.00 65 1016.5
20260508014539 70 0 0.0 0.0 0.00 0.00 0.00 64 1016.5
20260508014029 69 0 0.0 0.0 0.00 0.00 0.00 62 1016.5
20260508013529 68 0 0.0 0.0 0.00 0.00 0.00 64 1016.4
20260508013038 66 0 0.0 0.0 0.00 0.00 0.00 69 1016.5
20260508012531 65 0 0.0 0.0 0.00 0.00 0.00 69 1016.5
20260508012026 63 0 0.0 0.0 0.00 0.00 0.00 70 1016.5
20260508011545 62 0 0.0 0.0 0.00 0.00 0.00 71 1016.4
20260508011028 61 0 0.0 0.0 0.00 0.00 0.00 74 1016.4
20260508010528 60 0 0.0 0.0 0.00 0.00 0.00 75 1016.4
20260508010043 58 0 0.0 0.0 0.00 0.00 0.00 75 1016.4
20260508005530 57 0 0.0 0.0 0.00 0.00 0.00 77 1016.3
20260508005032 57 0 0.0 0.0 0.00 0.00 0.00 79 1016.4
20260508004540 56 0 0.0 0.0 0.00 0.00 0.00 79 1016.3
20260508004033 55 0 0.0 0.0 0.00 0.00 0.00 79 1016.2
20260508003527 54 0 0.0 0.0 0.00 0.00 0.00 81 1016.2
20260508003044 54 0 0.0 0.0 0.00 0.00 0.00 81 1016.1
20260508002528 53 0 0.0 0.0 0.00 0.00 0.00 82 1016.1
20260508002028 53 0 0.0 0.0 0.00 0.00 0.00 82 1016.1
20260508001552 53 0 0.0 0.0 0.00 0.00 0.00 82 1016.1
20260508001027 52 0 0.0 0.0 0.00 0.00 0.00 82 1016.0
20260508000530 52 0 0.0 0.0 0.00 0.00 0.00 81 1016.0
20260508000041 52 0 0.0 0.0 0.00 0.00 0.00 81 1016.0
20260507235531 52 0 0.0 0.0 0.00 0.00 0.00 81 1016.1
20260507235027 53 0 0.0 0.0 0.00 0.00 0.00 81 1016.0
20260507234538 53 0 0.0 0.0 0.00 0.00 0.00 81 1016.0
20260507234028 53 0 0.0 0.0 0.00 0.00 0.00 81 1016.0
20260507233529 53 0 0.0 0.0 0.00 0.00 0.00 81 1016.0
20260507233040 53 0 0.0 0.0 0.00 0.00 0.00 81 1015.9
20260507232529 53 0 0.0 0.0 0.00 0.00 0.00 81 1015.8
20260507232030 53 0 0.0 0.0 0.00 0.00 0.00 81 1015.7
20260507231538 53 0 0.0 0.0 0.00 0.00 0.00 80 1015.8
20260507231029 53 0 0.0 0.0 0.00 0.00 0.00 80 1015.8
20260507230529 53 0 0.0 0.0 0.00 0.00 0.00 80 1015.7
20260507230039 53 0 0.0 0.0 0.00 0.00 0.00 80 1015.7
20260507225528 53 0 0.0 0.0 0.00 0.00 0.00 81 1015.7
20260507225028 53 0 0.0 0.0 0.00 0.00 0.00 81 1015.7
20260507224542 53 0 0.0 0.0 0.00 0.00 0.00 81 1015.7
20260507224032 53 0 0.0 0.0 0.00 0.00 0.00 81 1015.6
20260507223528 53 0 0.0 0.0 0.00 0.00 0.00 80 1015.7
20260507223044 53 0 0.0 0.0 0.00 0.00 0.00 80 1015.6
20260507222532 53 0 0.0 0.0 0.00 0.00 0.00 80 1015.6
20260507222029 53 0 0.0 0.0 0.00 0.00 0.00 79 1015.6
20260507221539 53 0 0.0 0.0 0.00 0.00 0.00 79 1015.5
20260507221028 53 0 0.0 0.0 0.00 0.00 0.00 79 1015.6
20260507220528 53 0 0.0 0.0 0.00 0.00 0.00 80 1015.6
20260507220036 53 0 0.0 0.0 0.00 0.00 0.00 79 1015.5
20260507215529 54 0 0.0 0.0 0.00 0.00 0.00 79 1015.5
20260507215028 54 0 0.0 0.0 0.00 0.00 0.00 79 1015.5
20260507214546 54 0 0.0 0.0 0.00 0.00 0.00 79 1015.5
20260507214028 54 0 0.0 0.0 0.00 0.00 0.00 78 1015.5
20260507213526 54 0 0.0 0.0 0.00 0.00 0.00 78 1015.5
20260507213050 54 0 0.0 0.0 0.00 0.00 0.00 78 1015.5
20260507212526 55 0 0.0 0.0 0.00 0.00 0.00 78 1015.5
20260507212031 55 0 0.0 0.0 0.00 0.00 0.00 78 1015.5
20260507211550 55 0 0.0 0.0 0.00 0.00 0.00 78 1015.5
20260507211028 55 0 0.0 0.0 0.00 0.00 0.00 78 1015.5
20260507210530 55 0 0.0 0.0 0.00 0.00 0.00 77 1015.5
20260507210042 55 0 0.0 0.0 0.00 0.00 0.00 77 1015.5
20260507205529 55 0 0.0 0.0 0.00 0.00 0.00 77 1015.5
20260507205029 55 0 0.0 0.0 0.00 0.00 0.00 77 1015.6
20260507204536 55 0 0.0 0.0 0.00 0.00 0.00 76 1015.5
20260507204032 55 0 0.0 0.0 0.00 0.00 0.00 76 1015.5
20260507203530 55 0 0.0 0.0 0.00 0.00 0.00 76 1015.6
20260507203035 55 0 0.0 0.0 0.00 0.00 0.00 77 1015.6
20260507202528 55 0 0.0 0.0 0.00 0.00 0.00 77 1015.6
20260507202028 56 0 0.0 0.0 0.00 0.00 0.00 78 1015.6
20260507201547 56 0 0.0 0.0 0.00 0.00 0.00 76 1015.6
20260507201028 56 0 0.0 0.0 0.00 0.00 0.00 76 1015.6
20260507200528 56 0 0.0 0.0 0.00 0.00 0.00 75 1015.7